NWA123 KLGA-KMSP

Flight info

Callsign NWA123
Flight time 2h 31m
Altitude 36000
Route COATE Q436 RAAKK Q440 IDIOM MUSCL4
Aircraft A320/M-SDE3FGHIRWY/LB1

Departure

Time 2026-05-04 22:48
Airport LaGuardia Airport (KLGA)

Arrival

Time 2026-05-05 01:19
Airport Minneapolis–Saint Paul International Airport / Wold–Chamberlain Field (KMSP)
Time Latitude Longitude Altitude Speed Heading
2026-05-04 22:26 40.77037 -73.86062 20 ft 0 kts 179°
2026-05-04 22:37 40.77043 -73.86063 19 ft 4 kts 179°
2026-05-04 22:37 40.77069 -73.86063 22 ft 3 kts 179°
2026-05-04 22:37 40.77090 -73.86066 23 ft 4 kts 136°
2026-05-04 22:38 40.77095 -73.86090 21 ft 4 kts 59°
2026-05-04 22:38 40.77079 -73.86114 20 ft 2 kts 42°
2026-05-04 22:38 40.77077 -73.86116 21 ft 0 kts 42°
2026-05-04 22:40 40.77080 -73.86112 20 ft 4 kts 42°
2026-05-04 22:41 40.77116 -73.86068 19 ft 7 kts 43°
2026-05-04 22:41 40.77172 -73.86043 12 ft 12 kts 333°
2026-05-04 22:41 40.77221 -73.86134 12 ft 11 kts 301°
2026-05-04 22:41 40.77262 -73.86221 13 ft 14 kts 301°
2026-05-04 22:42 40.77317 -73.86335 14 ft 14 kts 303°
2026-05-04 22:42 40.77369 -73.86444 12 ft 14 kts 302°
2026-05-04 22:42 40.77418 -73.86547 12 ft 13 kts 302°
2026-05-04 22:42 40.77464 -73.86645 12 ft 12 kts 302°
2026-05-04 22:43 40.77507 -73.86734 12 ft 10 kts 304°
2026-05-04 22:43 40.77563 -73.86809 13 ft 13 kts 335°
2026-05-04 22:43 40.77637 -73.86850 12 ft 12 kts 303°
2026-05-04 22:43 40.77686 -73.86953 12 ft 16 kts 303°
2026-05-04 22:44 40.77754 -73.87093 13 ft 18 kts 302°
2026-05-04 22:44 40.77819 -73.87228 13 ft 17 kts 302°
2026-05-04 22:44 40.77869 -73.87332 15 ft 10 kts 302°
2026-05-04 22:44 40.77904 -73.87407 15 ft 11 kts 302°
2026-05-04 22:45 40.77944 -73.87492 16 ft 10 kts 302°
2026-05-04 22:45 40.78048 -73.87712 16 ft 15 kts 302°
2026-05-04 22:45 40.78098 -73.87814 18 ft 10 kts 302°
2026-05-04 22:46 40.78141 -73.87859 22 ft 6 kts 345°
2026-05-04 22:46 40.78192 -73.87858 15 ft 8 kts 21°
2026-05-04 22:46 40.78201 -73.87799 15 ft 7 kts 104°
2026-05-04 22:46 40.78189 -73.87769 15 ft 0 kts 121°
2026-05-04 22:47 40.78160 -73.87706 13 ft 33 kts 121°
2026-05-04 22:48 40.77895 -73.87149 14 ft 105 kts 122°
2026-05-04 22:48 40.77410 -73.86165 171 ft 138 kts 127°
2026-05-04 22:48 40.76897 -73.85131 778 ft 137 kts 128°
2026-05-04 22:48 40.76367 -73.84029 1260 ft 149 kts 128°
2026-05-04 22:49 40.75791 -73.82891 1746 ft 152 kts 141°
2026-05-04 22:49 40.74830 -73.82354 1974 ft 157 kts 184°
2026-05-04 22:49 40.73758 -73.82782 2180 ft 172 kts 218°
2026-05-04 22:49 40.73080 -73.84165 2406 ft 197 kts 259°
2026-05-04 22:50 40.73337 -73.86039 2705 ft 227 kts 292°
2026-05-04 22:50 40.74148 -73.87954 3151 ft 249 kts 299°
2026-05-04 22:50 40.75117 -73.89887 3956 ft 255 kts 301°
2026-05-04 22:50 40.76123 -73.91819 4860 ft 257 kts 301°
2026-05-04 22:51 40.77138 -73.93775 5749 ft 259 kts 301°
2026-05-04 22:51 40.78132 -73.95725 6623 ft 260 kts 300°
2026-05-04 22:51 40.79132 -73.97724 7446 ft 262 kts 300°
2026-05-04 22:51 40.80304 -73.99581 8276 ft 269 kts 320°
2026-05-04 22:52 40.81993 -74.00712 9110 ft 276 kts 336°
2026-05-04 22:52 40.83807 -74.01559 9965 ft 277 kts 337°
2026-05-04 22:52 40.85686 -74.02403 10349 ft 296 kts 337°
2026-05-04 22:52 40.87716 -74.03317 10561 ft 319 kts 337°
2026-05-04 22:53 40.89863 -74.04287 10997 ft 331 kts 337°
2026-05-04 22:53 40.92033 -74.05262 11655 ft 336 kts 337°
2026-05-04 22:53 40.94258 -74.06249 12366 ft 339 kts 337°
2026-05-04 22:53 40.96509 -74.07229 13079 ft 342 kts 337°
2026-05-04 22:54 40.98786 -74.08205 13770 ft 346 kts 337°
2026-05-04 22:54 41.01090 -74.09185 14390 ft 349 kts 338°
2026-05-04 22:54 41.03331 -74.10390 14991 ft 346 kts 325°
2026-05-04 22:54 41.05164 -74.12409 15574 ft 343 kts 307°
2026-05-04 22:55 41.06380 -74.15098 16185 ft 342 kts 290°
2026-05-04 22:55 41.07153 -74.18083 16797 ft 344 kts 287°
2026-05-04 22:55 41.07901 -74.21063 17365 ft 347 kts 287°
2026-05-04 22:55 41.08662 -74.24113 17956 ft 350 kts 288°
2026-05-04 22:56 41.09431 -74.27189 18492 ft 353 kts 288°
2026-05-04 22:56 41.10210 -74.30297 18993 ft 356 kts 288°
2026-05-04 22:56 41.10994 -74.33427 19496 ft 359 kts 288°
2026-05-04 22:56 41.11787 -74.36579 20014 ft 362 kts 288°
2026-05-04 22:57 41.12588 -74.39753 20544 ft 364 kts 288°
2026-05-04 22:57 41.13396 -74.42954 21083 ft 367 kts 288°
2026-05-04 22:57 41.14207 -74.46172 21603 ft 369 kts 288°
2026-05-04 22:57 41.15022 -74.49413 22102 ft 372 kts 289°
2026-05-04 22:58 41.15841 -74.52680 22591 ft 374 kts 289°
2026-05-04 22:58 41.16651 -74.55926 23067 ft 377 kts 289°
2026-05-04 22:58 41.17476 -74.59243 23533 ft 379 kts 289°
2026-05-04 22:58 41.18303 -74.62577 23912 ft 382 kts 289°
2026-05-04 22:59 41.19131 -74.65934 24288 ft 384 kts 289°
2026-05-04 22:59 41.19957 -74.69314 24658 ft 386 kts 289°
2026-05-04 22:59 41.20785 -74.72713 24832 ft 387 kts 289°
2026-05-04 22:59 41.21613 -74.76121 24869 ft 387 kts 289°
2026-05-04 23:00 41.22438 -74.79520 24857 ft 387 kts 288°
2026-05-04 23:00 41.23264 -74.82916 24874 ft 386 kts 289°
2026-05-04 23:00 41.24088 -74.86311 24876 ft 386 kts 289°
2026-05-04 23:00 41.24917 -74.89720 25180 ft 389 kts 289°
2026-05-04 23:01 41.25741 -74.93106 25545 ft 391 kts 289°
2026-05-04 23:01 41.26579 -74.96551 25891 ft 393 kts 289°
2026-05-04 23:01 41.27421 -75.00015 26235 ft 395 kts 289°
2026-05-04 23:01 41.28264 -75.03500 26568 ft 397 kts 289°
2026-05-04 23:02 41.29108 -75.07012 26897 ft 399 kts 289°
2026-05-04 23:02 41.29953 -75.10538 27223 ft 401 kts 288°
2026-05-04 23:02 41.30803 -75.14081 27541 ft 403 kts 289°
2026-05-04 23:02 41.31655 -75.17642 27863 ft 405 kts 288°
2026-05-04 23:03 41.32510 -75.21222 28154 ft 407 kts 288°
2026-05-04 23:03 41.33360 -75.24778 28440 ft 409 kts 288°
2026-05-04 23:03 41.34226 -75.28394 28726 ft 411 kts 289°
2026-05-04 23:03 41.35096 -75.32026 29012 ft 413 kts 289°
2026-05-04 23:04 41.35969 -75.35675 29266 ft 415 kts 288°
2026-05-04 23:04 41.36843 -75.39349 29519 ft 417 kts 288°
2026-05-04 23:04 41.37718 -75.43033 29744 ft 418 kts 288°
2026-05-04 23:04 41.38593 -75.46736 29940 ft 421 kts 288°
2026-05-04 23:05 41.39468 -75.50457 30142 ft 422 kts 288°
2026-05-04 23:05 41.40343 -75.54192 30417 ft 421 kts 288°
2026-05-04 23:05 41.41204 -75.57863 30703 ft 421 kts 289°
2026-05-04 23:05 41.42079 -75.61574 31002 ft 419 kts 289°
2026-05-04 23:06 41.42950 -75.65275 31308 ft 418 kts 289°
2026-05-04 23:06 41.43818 -75.68967 31611 ft 417 kts 289°
2026-05-04 23:06 41.44681 -75.72659 31884 ft 417 kts 289°
2026-05-04 23:06 41.45542 -75.76339 32190 ft 415 kts 289°
2026-05-04 23:07 41.46400 -75.80007 32502 ft 414 kts 289°
2026-05-04 23:07 41.47253 -75.83664 32809 ft 413 kts 289°
2026-05-04 23:07 41.48104 -75.87311 33112 ft 412 kts 289°
2026-05-04 23:07 41.48951 -75.90957 33414 ft 411 kts 289°
2026-05-04 23:08 41.49781 -75.94542 33695 ft 410 kts 289°
2026-05-04 23:08 41.50618 -75.98170 33955 ft 409 kts 289°
2026-05-04 23:08 41.51458 -76.01797 34202 ft 408 kts 289°
2026-05-04 23:08 41.52297 -76.05413 34431 ft 408 kts 289°
2026-05-04 23:09 41.53134 -76.09022 34667 ft 407 kts 289°
2026-05-04 23:09 41.53965 -76.12627 34910 ft 406 kts 289°
2026-05-04 23:09 41.54793 -76.16235 35108 ft 406 kts 288°
2026-05-04 23:09 41.55613 -76.19829 35323 ft 405 kts 288°
2026-05-04 23:10 41.56422 -76.23379 35533 ft 404 kts 288°
2026-05-04 23:10 41.57240 -76.26963 35746 ft 403 kts 288°
2026-05-04 23:10 41.58877 -76.34124 35812 ft 403 kts 288°
2026-05-04 23:11 41.60507 -76.41283 35801 ft 402 kts 288°
2026-05-04 23:11 41.62126 -76.48435 35801 ft 402 kts 288°
2026-05-04 23:12 41.63732 -76.55550 35790 ft 402 kts 288°
2026-05-04 23:12 41.65357 -76.62759 35790 ft 402 kts 288°
2026-05-04 23:13 41.66952 -76.69886 35783 ft 403 kts 287°
2026-05-04 23:13 41.68553 -76.77057 35781 ft 403 kts 287°
2026-05-04 23:14 41.70152 -76.84233 35773 ft 403 kts 287°
2026-05-04 23:14 41.71749 -76.91417 35772 ft 403 kts 287°
2026-05-04 23:15 41.73331 -76.98547 35774 ft 402 kts 287°
2026-05-04 23:15 41.74917 -77.05733 35774 ft 402 kts 287°
2026-05-04 23:16 41.76495 -77.12920 35783 ft 402 kts 287°
2026-05-04 23:16 41.78071 -77.20112 35781 ft 402 kts 287°
2026-05-04 23:17 41.79631 -77.27249 35800 ft 402 kts 287°
2026-05-04 23:17 41.81195 -77.34429 35799 ft 401 kts 287°
2026-05-04 23:18 41.82758 -77.41607 35804 ft 401 kts 287°
2026-05-04 23:18 41.84309 -77.48776 35801 ft 400 kts 287°
2026-05-04 23:19 41.85846 -77.55900 35802 ft 400 kts 287°
2026-05-04 23:19 41.87388 -77.63065 35794 ft 400 kts 286°
2026-05-04 23:20 41.88922 -77.70233 35799 ft 400 kts 286°
2026-05-04 23:20 41.90453 -77.77408 35798 ft 400 kts 286°
2026-05-04 23:21 41.91978 -77.84584 35802 ft 399 kts 286°
2026-05-04 23:21 41.93488 -77.91707 35801 ft 399 kts 286°
2026-05-04 23:22 41.95007 -77.98878 35798 ft 399 kts 286°
2026-05-04 23:22 41.96518 -78.06060 35798 ft 399 kts 286°
2026-05-04 23:23 41.98025 -78.13236 35793 ft 399 kts 286°
2026-05-04 23:23 41.99520 -78.20372 35792 ft 399 kts 286°
2026-05-04 23:24 42.01010 -78.27553 35785 ft 399 kts 286°
2026-05-04 23:24 42.02501 -78.34743 35792 ft 399 kts 285°
2026-05-04 23:25 42.03984 -78.41924 35782 ft 398 kts 285°
2026-05-04 23:25 42.05473 -78.49106 35781 ft 398 kts 285°
2026-05-04 23:26 42.06942 -78.56234 35778 ft 398 kts 285°
2026-05-04 23:26 42.08412 -78.63410 35774 ft 398 kts 285°
2026-05-04 23:27 42.09873 -78.70596 35761 ft 398 kts 285°
2026-05-04 23:27 42.11336 -78.77776 35752 ft 398 kts 285°
2026-05-04 23:28 42.12780 -78.84915 35750 ft 397 kts 285°
2026-05-04 23:28 42.14231 -78.92098 35757 ft 397 kts 285°
2026-05-04 23:29 42.15679 -78.99284 35766 ft 397 kts 285°
2026-05-04 23:29 42.17122 -79.06480 35768 ft 398 kts 285°
2026-05-04 23:30 42.18545 -79.13626 35770 ft 397 kts 285°
2026-05-04 23:30 42.19981 -79.20825 35738 ft 397 kts 285°
2026-05-04 23:31 42.21409 -79.28022 35738 ft 397 kts 284°
2026-05-04 23:31 42.22826 -79.35228 35736 ft 397 kts 284°
2026-05-04 23:32 42.24247 -79.42431 35739 ft 397 kts 284°
2026-05-04 23:32 42.25655 -79.49591 35733 ft 397 kts 284°
2026-05-04 23:33 42.27071 -79.56809 35731 ft 398 kts 284°
2026-05-04 23:33 42.28473 -79.64034 35721 ft 398 kts 284°
2026-05-04 23:34 42.29874 -79.71256 35721 ft 398 kts 284°
2026-05-04 23:34 42.31271 -79.78486 35713 ft 398 kts 284°
2026-05-04 23:35 42.32654 -79.85666 35712 ft 398 kts 284°
2026-05-04 23:35 42.34044 -79.92900 35704 ft 398 kts 284°
2026-05-04 23:36 42.35433 -80.00146 35705 ft 398 kts 284°
2026-05-04 23:36 42.36814 -80.07393 35703 ft 398 kts 284°
2026-05-04 23:37 42.38191 -80.14653 35706 ft 399 kts 284°
2026-05-04 23:37 42.39552 -80.21868 35706 ft 399 kts 283°
2026-05-04 23:38 42.40917 -80.29137 35709 ft 399 kts 283°
2026-05-04 23:38 42.42280 -80.36416 35714 ft 399 kts 283°
2026-05-04 23:39 42.43641 -80.43689 35714 ft 399 kts 283°
2026-05-04 23:39 42.44992 -80.50918 35711 ft 398 kts 283°
2026-05-04 23:40 42.46340 -80.58188 35718 ft 398 kts 283°
2026-05-04 23:40 42.47688 -80.65462 35713 ft 398 kts 283°
2026-05-04 23:41 42.49027 -80.72739 35707 ft 398 kts 283°
2026-05-04 23:41 42.50359 -80.80014 35704 ft 398 kts 283°
2026-05-04 23:42 42.51675 -80.87242 35702 ft 398 kts 283°
2026-05-04 23:42 42.52999 -80.94520 35706 ft 397 kts 283°
2026-05-04 23:43 42.54321 -81.01787 35707 ft 397 kts 283°
2026-05-04 23:43 42.55638 -81.09053 35701 ft 397 kts 283°
2026-05-04 23:44 42.56944 -81.16331 35700 ft 397 kts 283°
2026-05-04 23:44 42.58238 -81.23557 35689 ft 397 kts 283°
2026-05-04 23:45 42.59540 -81.30836 35692 ft 397 kts 282°
2026-05-04 23:45 42.60829 -81.38102 35686 ft 396 kts 282°
2026-05-04 23:46 42.62108 -81.45367 35685 ft 395 kts 282°
2026-05-04 23:46 42.63386 -81.52619 35671 ft 395 kts 282°
2026-05-04 23:47 42.64653 -81.59827 35673 ft 395 kts 282°
2026-05-04 23:47 42.65927 -81.67076 35648 ft 395 kts 282°
2026-05-04 23:48 42.67191 -81.74337 35650 ft 395 kts 282°
2026-05-04 23:48 42.68452 -81.81596 35645 ft 395 kts 282°
2026-05-04 23:49 42.69703 -81.88813 35644 ft 395 kts 282°
2026-05-04 23:49 42.70955 -81.96088 35640 ft 395 kts 282°
2026-05-04 23:50 42.72201 -82.03360 35639 ft 395 kts 282°
2026-05-04 23:50 42.73439 -82.10642 35630 ft 395 kts 282°
2026-05-04 23:51 42.74679 -82.17929 35636 ft 395 kts 282°
2026-05-04 23:51 42.75907 -82.25167 35649 ft 395 kts 282°
2026-05-04 23:52 42.77139 -82.32460 35643 ft 395 kts 282°
2026-05-04 23:52 42.78363 -82.39757 35644 ft 395 kts 282°
2026-05-04 23:53 42.79582 -82.47062 35623 ft 396 kts 281°
2026-05-04 23:53 42.80790 -82.54328 35613 ft 396 kts 281°
2026-05-04 23:54 42.81902 -82.61676 35604 ft 396 kts 279°
2026-05-04 23:54 42.82877 -82.69066 35604 ft 396 kts 279°
2026-05-04 23:55 42.83836 -82.76467 35601 ft 397 kts 279°
2026-05-04 23:56 42.85315 -82.87495 35610 ft 395 kts 279°
2026-05-04 23:56 42.86311 -82.94857 35610 ft 395 kts 279°
2026-05-04 23:57 42.87288 -83.02219 35606 ft 394 kts 279°
2026-05-04 23:57 42.88258 -83.09570 35610 ft 394 kts 279°
2026-05-04 23:58 42.89231 -83.16917 35608 ft 394 kts 279°
2026-05-04 23:58 42.90196 -83.24218 35607 ft 393 kts 279°
2026-05-04 23:59 42.91468 -83.31467 35604 ft 396 kts 290°
2026-05-04 23:59 42.93769 -83.38306 35603 ft 397 kts 292°
2026-05-05 00:00 42.96068 -83.45089 35596 ft 396 kts 291°
2026-05-05 00:00 42.98374 -83.51923 35595 ft 396 kts 291°
2026-05-05 00:01 43.00681 -83.58765 35599 ft 396 kts 291°
2026-05-05 00:01 43.02981 -83.65605 35596 ft 396 kts 291°
2026-05-05 00:02 43.05275 -83.72460 35593 ft 396 kts 291°
2026-05-05 00:02 43.07566 -83.79309 35616 ft 396 kts 291°
2026-05-05 00:03 43.09836 -83.86119 35614 ft 396 kts 291°
2026-05-05 00:03 43.12114 -83.92965 35596 ft 395 kts 291°
2026-05-05 00:04 43.14390 -83.99812 35598 ft 395 kts 291°
2026-05-05 00:04 43.16651 -84.06662 35585 ft 395 kts 290°
2026-05-05 00:05 43.18893 -84.13471 35583 ft 395 kts 290°
2026-05-05 00:05 43.21153 -84.20334 35591 ft 395 kts 290°
2026-05-05 00:06 43.23415 -84.27195 35586 ft 395 kts 290°
2026-05-05 00:06 43.25675 -84.34073 35581 ft 395 kts 290°
2026-05-05 00:07 43.27924 -84.40959 35559 ft 396 kts 290°
2026-05-05 00:07 43.30153 -84.47813 35595 ft 396 kts 290°
2026-05-05 00:08 43.32387 -84.54700 35572 ft 394 kts 290°
2026-05-05 00:08 43.34614 -84.61578 35565 ft 393 kts 290°
2026-05-05 00:09 43.36839 -84.68440 35561 ft 393 kts 290°
2026-05-05 00:09 43.39040 -84.75254 35556 ft 393 kts 290°
2026-05-05 00:10 43.41245 -84.82119 35553 ft 392 kts 290°
2026-05-05 00:10 43.43444 -84.88981 35552 ft 392 kts 290°
2026-05-05 00:11 43.45644 -84.95848 35552 ft 392 kts 290°
2026-05-05 00:11 43.47851 -85.02651 35552 ft 392 kts 290°
2026-05-05 00:12 43.50090 -85.09500 35557 ft 392 kts 290°
2026-05-05 00:12 43.52317 -85.16344 35552 ft 391 kts 290°
2026-05-05 00:13 43.54537 -85.23191 35590 ft 391 kts 290°
2026-05-05 00:13 43.56739 -85.30016 35577 ft 389 kts 290°
2026-05-05 00:14 43.58917 -85.36791 35562 ft 389 kts 290°
2026-05-05 00:14 43.61097 -85.43609 35533 ft 388 kts 290°
2026-05-05 00:15 43.63278 -85.50424 35525 ft 388 kts 290°
2026-05-05 00:15 43.65455 -85.57246 35521 ft 388 kts 290°
2026-05-05 00:16 43.67610 -85.64018 35519 ft 388 kts 290°
2026-05-05 00:16 43.69773 -85.70847 35520 ft 388 kts 290°
2026-05-05 00:17 43.71938 -85.77667 35519 ft 387 kts 290°
2026-05-05 00:17 43.74137 -85.84475 35519 ft 388 kts 290°
2026-05-05 00:18 43.76364 -85.91266 35544 ft 388 kts 290°
2026-05-05 00:18 43.78565 -85.98017 35542 ft 387 kts 290°
2026-05-05 00:19 43.80771 -86.04821 35542 ft 387 kts 290°
2026-05-05 00:19 43.82964 -86.11624 35530 ft 387 kts 290°
2026-05-05 00:20 43.85157 -86.18436 35545 ft 387 kts 290°
2026-05-05 00:20 43.87343 -86.25247 35527 ft 387 kts 290°
2026-05-05 00:21 43.89511 -86.32014 35521 ft 386 kts 290°
2026-05-05 00:21 43.91689 -86.38816 35519 ft 386 kts 290°
2026-05-05 00:22 43.93861 -86.45618 35514 ft 386 kts 290°
2026-05-05 00:22 43.96028 -86.52429 35541 ft 386 kts 289°
2026-05-05 00:23 43.98173 -86.59191 35587 ft 385 kts 289°
2026-05-05 00:23 44.00314 -86.65962 35537 ft 382 kts 289°
2026-05-05 00:24 44.02438 -86.72711 35533 ft 381 kts 289°
2026-05-05 00:24 44.04560 -86.79470 35534 ft 381 kts 289°
2026-05-05 00:25 44.06684 -86.86225 35526 ft 381 kts 289°
2026-05-05 00:25 44.08794 -86.92945 35530 ft 381 kts 289°
2026-05-05 00:26 44.10905 -86.99709 35546 ft 381 kts 289°
2026-05-05 00:26 44.13012 -87.06479 35541 ft 381 kts 289°
2026-05-05 00:27 44.15110 -87.13238 35527 ft 381 kts 289°
2026-05-05 00:27 44.17198 -87.19963 35527 ft 381 kts 289°
2026-05-05 00:28 44.19295 -87.26731 35524 ft 380 kts 289°
2026-05-05 00:28 44.21380 -87.33503 35545 ft 380 kts 289°
2026-05-05 00:29 44.23463 -87.40274 35534 ft 380 kts 289°
2026-05-05 00:29 44.25542 -87.47049 35527 ft 380 kts 289°
2026-05-05 00:30 44.27601 -87.53777 35519 ft 380 kts 289°
2026-05-05 00:30 44.29665 -87.60556 35515 ft 380 kts 289°
2026-05-05 00:31 44.31730 -87.67346 35513 ft 380 kts 289°
2026-05-05 00:31 44.33795 -87.74138 35513 ft 380 kts 289°
2026-05-05 00:32 44.35497 -87.79783 35512 ft 380 kts 289°
2026-05-05 00:32 44.37878 -87.87694 35513 ft 380 kts 289°
2026-05-05 00:33 44.39930 -87.94495 35516 ft 380 kts 289°
2026-05-05 00:33 44.41630 -88.00146 35518 ft 378 kts 288°
2026-05-05 00:34 44.43661 -88.06925 35521 ft 378 kts 288°
2026-05-05 00:34 44.46015 -88.14813 35516 ft 378 kts 288°
2026-05-05 00:35 44.48037 -88.21598 35517 ft 378 kts 288°
2026-05-05 00:35 44.49713 -88.27245 35518 ft 378 kts 288°
2026-05-05 00:36 44.51456 -88.34148 35521 ft 375 kts 284°
2026-05-05 00:36 44.53277 -88.42263 35528 ft 375 kts 284°
2026-05-05 00:37 44.54592 -88.48108 35576 ft 375 kts 284°
2026-05-05 00:37 44.56140 -88.55047 35579 ft 375 kts 284°
2026-05-05 00:38 44.57692 -88.62024 35582 ft 375 kts 284°
2026-05-05 00:38 44.59237 -88.69007 35581 ft 375 kts 284°
2026-05-05 00:39 44.60778 -88.75984 35579 ft 374 kts 284°
2026-05-05 00:39 44.62311 -88.82897 35582 ft 373 kts 283°
2026-05-05 00:40 44.63846 -88.89847 35577 ft 373 kts 283°
2026-05-05 00:40 44.65365 -88.96799 35576 ft 372 kts 283°
2026-05-05 00:41 44.66880 -89.03760 35574 ft 372 kts 283°
2026-05-05 00:41 44.68379 -89.10674 35584 ft 373 kts 283°
2026-05-05 00:42 44.69887 -89.17643 35587 ft 373 kts 283°
2026-05-05 00:42 44.71395 -89.24607 35621 ft 372 kts 283°
2026-05-05 00:43 44.72897 -89.31574 35613 ft 372 kts 283°
2026-05-05 00:43 44.74389 -89.38528 35596 ft 371 kts 283°
2026-05-05 00:44 44.75861 -89.45433 35596 ft 371 kts 283°
2026-05-05 00:44 44.77347 -89.52383 35592 ft 371 kts 283°
2026-05-05 00:45 44.78830 -89.59325 35592 ft 370 kts 283°
2026-05-05 00:45 44.80294 -89.66229 35590 ft 370 kts 283°
2026-05-05 00:46 44.81762 -89.73174 35590 ft 370 kts 283°
2026-05-05 00:46 44.83220 -89.80127 35590 ft 370 kts 283°
2026-05-05 00:47 44.84673 -89.87076 35593 ft 370 kts 283°
2026-05-05 00:47 44.86120 -89.94034 35598 ft 370 kts 283°
2026-05-05 00:48 44.87556 -90.00941 35678 ft 370 kts 283°
2026-05-05 00:48 44.88962 -90.07905 35676 ft 368 kts 278°
2026-05-05 00:49 44.89645 -90.15029 35675 ft 366 kts 275°
2026-05-05 00:49 44.90275 -90.22154 35680 ft 366 kts 275°
2026-05-05 00:50 44.90892 -90.29238 35691 ft 366 kts 275°
2026-05-05 00:50 44.91499 -90.36364 35701 ft 366 kts 275°
2026-05-05 00:51 44.92119 -90.43491 35720 ft 366 kts 275°
2026-05-05 00:51 44.92725 -90.50609 35733 ft 365 kts 275°
2026-05-05 00:52 44.93328 -90.57722 35736 ft 365 kts 275°
2026-05-05 00:52 44.93924 -90.64791 35734 ft 365 kts 275°
2026-05-05 00:53 44.94520 -90.71900 35735 ft 365 kts 275°
2026-05-05 00:53 44.95119 -90.79016 35686 ft 368 kts 275°
2026-05-05 00:53 44.95422 -90.82649 35440 ft 377 kts 275°
2026-05-05 00:54 44.95726 -90.86345 35186 ft 380 kts 275°
2026-05-05 00:54 44.96029 -90.90054 34941 ft 380 kts 275°
2026-05-05 00:54 44.96328 -90.93712 34726 ft 379 kts 275°
2026-05-05 00:54 44.96630 -90.97392 34579 ft 376 kts 275°
2026-05-05 00:55 44.96929 -91.01050 34478 ft 374 kts 275°
2026-05-05 00:55 44.97225 -91.04679 34304 ft 368 kts 275°
2026-05-05 00:55 44.97515 -91.08239 33670 ft 363 kts 275°
2026-05-05 00:55 44.97798 -91.11763 32873 ft 359 kts 275°
2026-05-05 00:56 44.98075 -91.15260 31956 ft 359 kts 275°
2026-05-05 00:56 44.98349 -91.18730 31438 ft 352 kts 275°
2026-05-05 00:56 44.98616 -91.22078 30959 ft 344 kts 274°
2026-05-05 00:56 44.98881 -91.25405 30511 ft 338 kts 274°
2026-05-05 00:57 44.99143 -91.28680 30048 ft 332 kts 274°
2026-05-05 00:57 44.99398 -91.31899 29533 ft 327 kts 274°
2026-05-05 00:57 44.99646 -91.35062 29067 ft 321 kts 274°
2026-05-05 00:57 44.99888 -91.38158 28638 ft 314 kts 274°
2026-05-05 00:58 45.00123 -91.41193 28224 ft 307 kts 274°
2026-05-05 00:58 45.00353 -91.44167 27730 ft 303 kts 274°
2026-05-05 00:58 45.00580 -91.47117 27198 ft 301 kts 274°
2026-05-05 00:58 45.00801 -91.50004 26693 ft 299 kts 274°
2026-05-05 00:59 45.01024 -91.52915 26176 ft 297 kts 274°
2026-05-05 00:59 45.01245 -91.55802 25695 ft 294 kts 274°
2026-05-05 00:59 45.01463 -91.58669 25208 ft 293 kts 274°
2026-05-05 00:59 45.01678 -91.61520 24736 ft 291 kts 273°
2026-05-05 01:00 45.01891 -91.64350 24274 ft 289 kts 273°
2026-05-05 01:00 45.02100 -91.67159 23809 ft 286 kts 273°
2026-05-05 01:00 45.02306 -91.69946 23390 ft 284 kts 273°
2026-05-05 01:00 45.02508 -91.72670 22914 ft 281 kts 273°
2026-05-05 01:01 45.02712 -91.75395 22482 ft 277 kts 273°
2026-05-05 01:01 45.02911 -91.78081 22062 ft 273 kts 273°
2026-05-05 01:01 45.03107 -91.80733 21629 ft 270 kts 273°
2026-05-05 01:01 45.03303 -91.83370 21236 ft 268 kts 274°
2026-05-05 01:02 45.03498 -91.85984 20819 ft 267 kts 274°
2026-05-05 01:02 45.03690 -91.88584 20403 ft 265 kts 274°
2026-05-05 01:02 45.03879 -91.91166 19981 ft 263 kts 274°
2026-05-05 01:02 45.04063 -91.93701 19561 ft 262 kts 274°
2026-05-05 01:03 45.04250 -91.96261 19129 ft 261 kts 274°
2026-05-05 01:03 45.04435 -91.98806 18694 ft 260 kts 274°
2026-05-05 01:03 45.04618 -92.01344 18267 ft 259 kts 274°
2026-05-05 01:03 45.04798 -92.03877 17806 ft 259 kts 274°
2026-05-05 01:04 45.04979 -92.06406 17351 ft 258 kts 274°
2026-05-05 01:04 45.05334 -92.11417 16514 ft 255 kts 274°
2026-05-05 01:04 45.05507 -92.13871 16105 ft 254 kts 274°
2026-05-05 01:05 45.05683 -92.16355 15711 ft 254 kts 274°
2026-05-05 01:05 45.05859 -92.18845 15285 ft 255 kts 274°
2026-05-05 01:05 45.05943 -92.21348 14896 ft 255 kts 268°
2026-05-05 01:05 45.05683 -92.23835 14648 ft 258 kts 259°
2026-05-05 01:06 45.05286 -92.26315 14291 ft 259 kts 260°
2026-05-05 01:06 45.04897 -92.28798 13896 ft 259 kts 260°
2026-05-05 01:06 45.04516 -92.31261 13478 ft 260 kts 260°
2026-05-05 01:06 45.04127 -92.33768 13033 ft 262 kts 260°
2026-05-05 01:07 45.03733 -92.36278 12613 ft 262 kts 260°
2026-05-05 01:07 45.03338 -92.38789 12191 ft 262 kts 261°
2026-05-05 01:07 45.02943 -92.41297 11766 ft 262 kts 261°
2026-05-05 01:07 45.02547 -92.43811 11335 ft 262 kts 261°
2026-05-05 01:08 45.02150 -92.46321 10910 ft 262 kts 261°
2026-05-05 01:08 45.01752 -92.48831 10480 ft 262 kts 261°
2026-05-05 01:08 45.01361 -92.51290 10213 ft 257 kts 261°
2026-05-05 01:08 45.00971 -92.53734 9955 ft 253 kts 261°
2026-05-05 01:09 45.00461 -92.56112 9815 ft 256 kts 251°
2026-05-05 01:09 44.99565 -92.58306 9679 ft 262 kts 239°
2026-05-05 01:09 44.98311 -92.60206 9554 ft 267 kts 231°
2026-05-05 01:09 44.96960 -92.62043 9039 ft 272 kts 230°
2026-05-05 01:10 44.95605 -92.63888 8666 ft 268 kts 231°
2026-05-05 01:10 44.94268 -92.65709 8238 ft 267 kts 231°
2026-05-05 01:10 44.92950 -92.67509 7766 ft 268 kts 231°
2026-05-05 01:10 44.91628 -92.69314 7559 ft 259 kts 230°
2026-05-05 01:11 44.90356 -92.71040 7368 ft 250 kts 230°
2026-05-05 01:11 44.89113 -92.72733 7047 ft 247 kts 230°
2026-05-05 01:11 44.87875 -92.74336 6991 ft 237 kts 223°
2026-05-05 01:11 44.86457 -92.75466 6974 ft 235 kts 211°
2026-05-05 01:12 44.85109 -92.76642 6748 ft 218 kts 237°
2026-05-05 01:12 44.84412 -92.78447 6701 ft 208 kts 259°
2026-05-05 01:12 44.84017 -92.80387 6647 ft 211 kts 259°
2026-05-05 01:12 44.83588 -92.82365 6452 ft 211 kts 258°
2026-05-05 01:13 44.83149 -92.84344 6200 ft 211 kts 258°
2026-05-05 01:13 44.82708 -92.86312 5913 ft 211 kts 258°
2026-05-05 01:13 44.82261 -92.88283 5631 ft 211 kts 258°
2026-05-05 01:13 44.81814 -92.90238 5350 ft 209 kts 258°
2026-05-05 01:14 44.81369 -92.92190 5074 ft 210 kts 258°
2026-05-05 01:14 44.80924 -92.94147 4793 ft 210 kts 258°
2026-05-05 01:14 44.80484 -92.96075 4511 ft 209 kts 258°
2026-05-05 01:14 44.80057 -92.98015 4240 ft 205 kts 263°
2026-05-05 01:15 44.80009 -92.99971 4016 ft 197 kts 284°
2026-05-05 01:15 44.80454 -93.01755 3784 ft 192 kts 302°
2026-05-05 01:15 44.81149 -93.03352 3538 ft 191 kts 303°
2026-05-05 01:15 44.81849 -93.04955 3275 ft 192 kts 303°
2026-05-05 01:16 44.82525 -93.06506 3011 ft 180 kts 303°
2026-05-05 01:16 44.83163 -93.07973 2776 ft 171 kts 303°
2026-05-05 01:16 44.83746 -93.09314 2541 ft 155 kts 303°
2026-05-05 01:16 44.84279 -93.10540 2357 ft 139 kts 303°
2026-05-05 01:17 44.84764 -93.11654 2178 ft 130 kts 303°
2026-05-05 01:17 44.85226 -93.12717 1996 ft 125 kts 303°
2026-05-05 01:17 44.85675 -93.13751 1828 ft 121 kts 303°
2026-05-05 01:17 44.86109 -93.14751 1655 ft 118 kts 303°
2026-05-05 01:18 44.86536 -93.15732 1487 ft 116 kts 303°
2026-05-05 01:18 44.86957 -93.16706 1325 ft 117 kts 304°
2026-05-05 01:18 44.87369 -93.17686 1170 ft 119 kts 304°
2026-05-05 01:18 44.87801 -93.18662 1019 ft 115 kts 305°
2026-05-05 01:19 44.88202 -93.19587 835 ft 106 kts 304°
2026-05-05 01:19 44.88549 -93.20374 823 ft 77 kts 302°
2026-05-05 01:19 44.88772 -93.20889 821 ft 40 kts 301°
2026-05-05 01:19 44.88830 -93.21085 826 ft 17 kts 262°
2026-05-05 01:20 44.88794 -93.21253 822 ft 19 kts 243°
2026-05-05 01:20 44.88701 -93.21389 824 ft 20 kts 224°
2026-05-05 01:20 44.88596 -93.21536 825 ft 22 kts 225°
2026-05-05 01:20 44.88488 -93.21696 824 ft 24 kts 226°
2026-05-05 01:21 44.88377 -93.21853 822 ft 19 kts 224°
2026-05-05 01:21 44.88308 -93.21832 825 ft 11 kts 130°
2026-05-05 01:21 44.88264 -93.21734 824 ft 12 kts 121°
2026-05-05 01:21 44.88221 -93.21633 825 ft 12 kts 121°
2026-05-05 01:22 44.88206 -93.21547 825 ft 8 kts 83°
2026-05-05 01:22 44.88225 -93.21479 825 ft 6 kts 66°
2026-05-05 01:22 44.88231 -93.21462 825 ft 1 kts 65°
2026-05-05 01:22 44.88238 -93.21445 823 ft 4 kts 55°
2026-05-05 01:23 44.88257 -93.21421 823 ft 3 kts 37°
2026-05-05 01:23 44.88271 -93.21406 823 ft 2 kts 36°
2026-05-05 01:23 44.88278 -93.21399 825 ft 1 kts 36°
2026-05-05 01:23 44.88281 -93.21396 825 ft 0 kts 36°
2026-05-05 01:24 44.88288 -93.21389 823 ft 1 kts 36°
2026-05-05 01:24 44.88288 -93.21388 825 ft 0 kts 36°